When you browse on this site, cookies collect data to enhance your experience and personalize the content and advertising you see.
Visit our Privacy Policy to learn more. By continuing to use the site, you agree to this use of cookies and data.
  • In Austria
  • List of Countries
  • For 7 days
  • Water Temperature
  • Satellite Maps
  • Weather Map
  • News
  • Weather Widgets
  • user-avatar
    Login

    Hourly Weather Lezhe

    Today, 21 May, Tuesday

    Time Temperature Precipitation Wind Pressure Humidity
    00:00 +11°C° 0.5 mm 3 mps 735 mmHg 89%
    01:00 +10°C° 0.5 mm 3 mps 735 mmHg 89%
    02:00 +10°C° 0.2 mm 2 mps 735 mmHg 89%
    03:00 +10°C° 0.2 mm 2 mps 735 mmHg 89%
    04:00 +10°C° 0.2 mm 2 mps 735 mmHg 88%
    05:00 +11°C° 0.1 mm 3 mps 735 mmHg 85%
    06:00 +13°C° 0.1 mm 3 mps 735 mmHg 83%
    07:00 +14°C° 0.1 mm 3 mps 735 mmHg 80%
    08:00 +16°C° 0.3 mm 3 mps 735 mmHg 77%
    09:00 +17°C° 0.3 mm 3 mps 735 mmHg 74%
    10:00 +18°C° 0.3 mm 3 mps 736 mmHg 71%
    11:00 +18°C° 0.2 mm 3 mps 736 mmHg 67%
    12:00 +19°C° 0.2 mm 3 mps 736 mmHg 64%
    13:00 +19°C° 0.2 mm 3 mps 736 mmHg 61%
    14:00 +19°C° 0.1 mm 3 mps 736 mmHg 61%
    15:00 +19°C° 0.1 mm 3 mps 736 mmHg 61%
    16:00 +18°C° 0.1 mm 2 mps 736 mmHg 61%
    17:00 +17°C° 0 mm 2 mps 736 mmHg 68%
    18:00 +16°C° 0 mm 1 mps 736 mmHg 74%
    19:00 +15°C° 0 mm 1 mps 737 mmHg 80%
    20:00 +15°C° 0 mm 1 mps 737 mmHg 80%
    21:00 +15°C° 0 mm 2 mps 738 mmHg 80%
    22:00 +15°C° 0 mm 2 mps 738 mmHg 80%
    23:00 +14°C° 0.1 mm 2 mps 738 mmHg 81%

    Tomorrow, 22 May, Wednesday

    Time Temperature Precipitation Wind Pressure Humidity
    00:00 +14°C° 0.1 mm 2 mps 738 mmHg 82%
    01:00 +14°C° 0.1 mm 2 mps 738 mmHg 83%
    02:00 +14°C° 0 mm 2 mps 738 mmHg 83%
    03:00 +13°C° 0 mm 1 mps 738 mmHg 84%
    04:00 +13°C° 0 mm 1 mps 738 mmHg 84%
    05:00 +14°C° 0 mm 1 mps 738 mmHg 80%
    06:00 +16°C° 0 mm 1 mps 738 mmHg 76%
    07:00 +18°C° 0 mm 1 mps 738 mmHg 72%
    08:00 +20°C° 0 mm 1 mps 738 mmHg 67%
    09:00 +21°C° 0 mm 1 mps 738 mmHg 62%
    10:00 +22°C° 0 mm 1 mps 738 mmHg 57%
    11:00 +21°C° 0 mm 2 mps 738 mmHg 55%
    12:00 +23°C° 0 mm 2 mps 738 mmHg 54%
    13:00 +23°C° 0 mm 2 mps 738 mmHg 53%
    14:00 +23°C° 0 mm 2 mps 737 mmHg 55%
    15:00 +21°C° 0 mm 2 mps 737 mmHg 57%
    16:00 +21°C° 0 mm 2 mps 737 mmHg 59%
    17:00 +19°C° 0 mm 2 mps 737 mmHg 67%
    18:00 +18°C° 0 mm 1 mps 737 mmHg 75%
    19:00 +14°C° 0 mm 0 mps 737 mmHg 83%
    20:00 +15°C° 0 mm 1 mps 737 mmHg 83%
    21:00 +14°C° 0 mm 1 mps 738 mmHg 83%
    22:00 +14°C° 0 mm 1 mps 738 mmHg 83%
    23:00 +14°C° 0 mm 1 mps 738 mmHg 81%

    Day after tomorrow, 23 May, Thursday

    Time Temperature Precipitation Wind Pressure Humidity
    00:00 +13°C° 0 mm 1 mps 737 mmHg 79%
    01:00 +13°C° 0 mm 1 mps 737 mmHg 77%
    02:00 +13°C° 0 mm 1 mps 737 mmHg 74%
    03:00 +13°C° 0 mm 1 mps 737 mmHg 71%
    04:00 +13°C° 0 mm 1 mps 737 mmHg 67%
    05:00 +14°C° 0 mm 1 mps 737 mmHg 64%
    06:00 +16°C° 0 mm 1 mps 736 mmHg 61%
    07:00 +19°C° 0 mm 1 mps 736 mmHg 57%
    08:00 +20°C° 0 mm 1 mps 736 mmHg 52%
    09:00 +22°C° 0 mm 1 mps 736 mmHg 47%
    10:00 +24°C° 0 mm 2 mps 736 mmHg 42%
    11:00 +24°C° 0 mm 2 mps 736 mmHg 44%
    12:00 +24°C° 0 mm 3 mps 736 mmHg 46%
    13:00 +23°C° 0 mm 4 mps 735 mmHg 47%
    14:00 +22°C° 0.1 mm 4 mps 735 mmHg 52%
    15:00 +21°C° 0.1 mm 3 mps 735 mmHg 57%
    16:00 +20°C° 0.1 mm 3 mps 734 mmHg 61%
    17:00 +19°C° 0 mm 2 mps 734 mmHg 68%
    18:00 +18°C° 0 mm 2 mps 734 mmHg 74%
    19:00 +16°C° 0 mm 1 mps 734 mmHg 81%
    20:00 +16°C° 0.1 mm 1 mps 734 mmHg 83%
    21:00 +15°C° 0.1 mm 1 mps 735 mmHg 85%
    22:00 +15°C° 0.1 mm 1 mps 735 mmHg 87%
    23:00 +15°C° 0.1 mm 1 mps 735 mmHg 88%

    24 May, Friday

    Time Temperature Precipitation Wind Pressure Humidity
    00:00 +15°C° 0.1 mm 1 mps 734 mmHg 89%
    01:00 +14°C° 0.1 mm 1 mps 734 mmHg 90%
    02:00 +14°C° 0.2 mm 1 mps 734 mmHg 90%
    03:00 +14°C° 0.2 mm 1 mps 734 mmHg 91%
    04:00 +14°C° 0.2 mm 1 mps 734 mmHg 91%
    05:00 +15°C° 0.1 mm 1 mps 734 mmHg 89%
    06:00 +16°C° 0.1 mm 1 mps 734 mmHg 86%
    07:00 +16°C° 0.1 mm 1 mps 734 mmHg 83%
    08:00 +19°C° 0 mm 1 mps 734 mmHg 78%
    09:00 +20°C° 0 mm 1 mps 734 mmHg 72%
    10:00 +21°C° 0 mm 1 mps 734 mmHg 66%
    11:00 +20°C° 0.1 mm 2 mps 734 mmHg 66%
    12:00 +21°C° 0.1 mm 2 mps 734 mmHg 65%
    13:00 +21°C° 0.1 mm 2 mps 734 mmHg 64%
    14:00 +21°C° 0.4 mm 2 mps 733 mmHg 67%
    15:00 +20°C° 0.4 mm 2 mps 733 mmHg 71%
    16:00 +20°C° 0.4 mm 2 mps 733 mmHg 74%
    17:00 +20°C° 0.3 mm 1 mps 733 mmHg 80%
    18:00 +18°C° 0.3 mm 1 mps 733 mmHg 86%
    19:00 +15°C° 0.3 mm 0 mps 733 mmHg 92%
    20:00 +15°C° 0 mm 1 mps 734 mmHg 92%
    21:00 +15°C° 0 mm 1 mps 734 mmHg 93%
    22:00 +14°C° 0 mm 1 mps 734 mmHg 93%
    23:00 +14°C° 0 mm 1 mps 734 mmHg 93%

    25 May, Saturday

    Time Temperature Precipitation Wind Pressure Humidity
    00:00 +14°C° 0 mm 1 mps 734 mmHg 93%
    01:00 +14°C° 0 mm 1 mps 734 mmHg 92%
    02:00 +13°C° 0 mm 1 mps 734 mmHg 92%
    03:00 +13°C° 0 mm 1 mps 734 mmHg 91%
    04:00 +13°C° 0 mm 1 mps 734 mmHg 91%
    05:00 +15°C° 0 mm 1 mps 735 mmHg 86%
    06:00 +16°C° 0 mm 1 mps 735 mmHg 81%
    07:00 +19°C° 0 mm 1 mps 735 mmHg 76%
    08:00 +20°C° 0 mm 1 mps 735 mmHg 72%
    09:00 +21°C° 0 mm 1 mps 735 mmHg 67%
    10:00 +22°C° 0 mm 1 mps 735 mmHg 63%
    11:00 +23°C° 0 mm 2 mps 735 mmHg 62%
    12:00 +23°C° 0 mm 2 mps 735 mmHg 62%
    13:00 +22°C° 0 mm 3 mps 735 mmHg 61%
    14:00 +23°C° 0 mm 2 mps 735 mmHg 62%
    15:00 +23°C° 0 mm 2 mps 735 mmHg 64%
    16:00 +21°C° 0 mm 2 mps 734 mmHg 65%
    17:00 +20°C° 0 mm 2 mps 735 mmHg 73%
    18:00 +19°C° 0 mm 1 mps 735 mmHg 80%
    19:00 +16°C° 0 mm 0 mps 735 mmHg 88%
    20:00 +16°C° 0 mm 1 mps 735 mmHg 88%
    21:00 +16°C° 0 mm 1 mps 735 mmHg 88%
    22:00 +15°C° 0 mm 1 mps 735 mmHg 88%
    23:00 +15°C° 0 mm 1 mps 735 mmHg 87%

    26 May, Sunday

    Time Temperature Precipitation Wind Pressure Humidity
    00:00 +15°C° 0 mm 1 mps 735 mmHg 85%
    01:00 +15°C° 0 mm 1 mps 735 mmHg 84%
    02:00 +15°C° 0 mm 1 mps 735 mmHg 82%
    03:00 +15°C° 0 mm 1 mps 735 mmHg 79%
    04:00 +15°C° 0 mm 1 mps 735 mmHg 77%
    05:00 +16°C° 0 mm 1 mps 735 mmHg 71%
    06:00 +16°C° 0 mm 0 mps 735 mmHg 65%
    07:00 +18°C° 0 mm 0 mps 735 mmHg 60%
    08:00 +19°C° 0 mm 0 mps 735 mmHg 54%
    09:00 +22°C° 0 mm 1 mps 735 mmHg 48%
    10:00 +24°C° 0 mm 1 mps 735 mmHg 42%
    11:00 +24°C° 0 mm 2 mps 735 mmHg 42%
    12:00 +24°C° 0 mm 2 mps 734 mmHg 43%
    13:00 +25°C° 0 mm 3 mps 734 mmHg 44%
    14:00 +24°C° 0 mm 3 mps 734 mmHg 47%
    15:00 +24°C° 0 mm 2 mps 734 mmHg 51%
    16:00 +23°C° 0 mm 2 mps 734 mmHg 54%
    17:00 +20°C° 0 mm 2 mps 734 mmHg 64%
    18:00 +19°C° 0 mm 1 mps 734 mmHg 73%
    19:00 +18°C° 0 mm 1 mps 734 mmHg 82%
    20:00 +16°C° 0 mm 1 mps 734 mmHg 82%
    21:00 +16°C° 0 mm 1 mps 734 mmHg 82%
    22:00 +15°C° 0 mm 0 mps 735 mmHg 82%
    23:00 +15°C° 0 mm 0 mps 735 mmHg 80%
    Show more